Location: Newark
(13.8117°N, 3.6025°W)
Time: 08:15:06
(UTC+00:00)

Vanguard 2 - Pass Details

Date: 30 August 2019
Orbit: 554 x 2937 km, 32.9° (Epoch: 18 September)

Event Time Altitude Azimuth Distance (km) Brightness Sun altitude
Rises 20:19:22 0° 267° (W) 5,729 13.0 -27.3°
Reaches altitude 10° 20:24:32 10° 251° (WSW) 5,095 12.3 -28.5°
Maximum altitude 20:34:23 20° 211° (SSW) 4,794 11.6 -30.7°
Drops below altitude 10° 20:45:33 10° 172° (S) 5,762 11.7 -33.3°
Enters shadow 20:47:36 - 166° (SSE) 6,031 11.8 -33.8°
Sets 20:52:14 0° 156° (SSE) 6,694 - -34.8°
